Regional Weather Roundup
Issued by NWS Portland, ME

Current Version | Previous Version | Text Only | Print | Product List | Glossary Off
Versions: 1 2 3 4 5 6 7 8 9 10 11 12 13 14 15 16 17 18 19 20 21 22 23 24 25 26 27 28 29 30 31 32 33 34 35 36 37 38 39 40 41 42 43 44 45 46 47 48 49 50
000 ASUS41 KGYX 212010 RWRGYX WEATHER ROUNDUP FOR MAINE AND NEW HAMPSHIRE NATIONAL WEATHER SERVICE GRAY ME 400 PM EDT THU JUN 21 2018 MEZ002-005-006-010-012-015-018-020-021-024-026-027-029-212100- MAINE CITY SKY/WX TMP DP RH WIND PRES REMARKS PORTLAND FAIR 72 57 59 S16 29.78S SANFORD FAIR 74 59 59 VRB7 29.79S WISCASSET FAIR 72 56 57 S10 29.79S ROCKLAND FAIR 70 53 54 S9 29.78S FRYEBURG FAIR 79 42 26 N13 29.79R LEWISTONAUBURN N/A 78 43 28 N10G18 29.78 AUGUSTA PTSUNNY 77 42 28 VRB3 29.78S WATERVILLE FAIR 74 44 34 N10 29.76S BANGOR FAIR 74 44 34 NW14G20 29.79S GREENVILLE N/A 64 40 41 NW13 29.82S MILLINOCKET FAIR 71 38 29 N13 29.82S HOULTON FAIR 66 42 41 N13 29.80R PRESQUE ISLE PTSUNNY 64 37 36 NW15G22 29.84 FRENCHVILLE FAIR 62 37 39 NW12 29.85R CARIBOU FAIR 65 37 35 N16 29.83R $$ NHZ002-005-008-009-011-012-014-212100- NEW HAMPSHIRE CITY SKY/WX TMP DP RH WIND PRES REMARKS PORTSMOUTH MOSUNNY 73 55 53 E10 29.77S ROCHESTER FAIR 79 49 34 N8 29.77S NASHUA PTSUNNY 78 58 49 VRB6 29.78S MANCHESTER FAIR 83 52 34 VRB7 29.76S CONCORD FAIR 81 48 31 NW13 29.78S LACONIA FAIR 77 42 28 W9 29.80R PLYMOUTH FAIR 76 40 27 N9 29.81S BERLIN FAIR 71 34 25 N14 29.85R WHITEFIELD FAIR 72 41 32 VRB5G17 29.85R JAFFREY FAIR 79 52 38 VRB7 29.81R KEENE FAIR 82 45 27 NW12 29.79R LEBANON FAIR 79 40 24 NW10 29.81S MT WASHINGTON NOT AVBL $$ VTZ005-007-008-212100- VERMONT CITY SKY/WX TMP DP RH WIND PRES REMARKS ST JOHNSBURY N/A 71 41 33 MISG 29.84R MONTPELIER FAIR 68 44 42 NW14G20 29.91R BURLINGTON FAIR 70 38 31 N16 29.89F $$ MAZ007-012-024-CTZ003-RIZ002-NYZ038-NYZ072-212100- SOUTHERN NEW ENGLAND AND NY CITY SKY/WX TMP DP RH WIND PRES REMARKS BOSTON PTSUNNY 72 57 59 E14 29.78R WORCESTER CLOUDY 73 59 61 N9 29.80R NANTUCKET PTSUNNY 67 65 93 SE12 29.77S PROVIDENCE FAIR 80 62 54 SE13G24 29.74F HARTFORD PTSUNNY 86 56 35 NE6 29.74F ALBANY FAIR 80 58 46 NE10 29.79F NEW YORK CITY FAIR 84 56 38 VRB3 29.75S $$ ANZ081-ANZ082-ANZ150-NHZ014-MEZ023>029-212100- COASTAL MARINE OBSERVATIONS STATION/POSITION TIME TEMP WIND PRES WAVE AIR SEA DIR/SP/G HT/PER (UTC) (F) (DEG/KT/KT) (MB) (FT/S) MOUNT DESERT ROC 2000 62 140/ 8/ 8 1008.9S MATINICUS ROCK 2000 63 150/ 11/ 11 1008.3F ISLE OF SHOALS 2000 62 110/ 11/ 11 1008.3R JEFFREYS LEDGE 1936 59 N/A 1/ 9 $$ .............KEY.............. WCI - WIND CHILL TC - TEMPERATURE IN CELSIUS VSB - VISIBILITY IN MILES HX - HEAT INDEX FAIR- INDICATES FEW OR NO CLOUDS BELOW 12,000 FT, WITH NO SIGNIFICANT WEATHER AND/OR OBSTRUCTIONS TO VISIBILITY.

USA.gov is the U.S. government's official web portal to all federal, state and local government web resources and services.